Temp
9 9 9 9 9 9 9 9 9 9 9 9 10 10 10 10 9 9 9 9 9 10 11 11 11 10 9 9 9 8 8 8 7 7 6 7 6 6 5 4 3 3 1
10 10 9 9 9 9 10 10 10 10 9 9 9 9 9 9 9 9 9 9 10 11 11 10 10 10 9 9 8 9 8 8 7 6 6 6 5 4 4 3 2 1 1
10 10 10 10 10 11 12 11 10 9 9 9 9 9 9 10 10 9 9 10 11 11 10 10 9 9 9 8 9 9 8 7 7 6 5 5 4 4 4 3 2 1 -0
11 11 10 12 13 12 11 11 11 11 11 11 10 9 9 9 9 9 10 12 12 11 10 10 9 9 9 9 9 8 8 7 6 6 5 4 3 2 2 1 -0 -1 -1
11 11 15 15 14 12 12 12 12 11 11 9 9 10 12 11 12 11 11 11 12 12 11 10 10 9 9 9 9 8 8 7 6 4 3 3 2 1 0 -1 -1 -2 -2
15 17 14 12 13 15 14 13 12 12 12 11 11 10 10 10 12 12 12 10 10 10 10 10 10 9 9 8 8 8 7 6 5 4 2 2 1 -0 -2 -2 -3 -3 -2
19 16 14 12 12 12 14 13 13 12 11 10 10 10 10 10 12 12 11 10 9 9 9 9 9 9 8 8 8 7 5 3 2 2 2 0 -1 -2 -2 -3 -3 -4 -4
19 16 15 15 14 12 11 11 10 10 10 10 8 8 8 8 10 10 9 9 9 9 8 8 9 8 8 8 6 4 2 2 1 0 -1 -1 -2 -2 -2 -2 -4 -3 -3
18 18 16 14 14 14 14 11 10 9 9 9 9 9 9 9 9 9 9 9 9 8 8 8 8 7 5 3 2 1 1 -0 -1 -1 -2 -3 -2 -2 -2 -3 -3 -6 -6
14 14 13 13 13 13 12 12 12 10 10 10 10 9 9 9 9 9 9 9 8 8 6 6 4 3 3 1 1 -0 -0 -1 -2 -3 -4 -3 -3 -2 -3 -4 -5 -6 -7
13 13 12 12 11 10 10 11 11 10 10 9 9 9 9 9 8 8 8 8 7 6 4 3 1 0 -0 -0 -1 -2 -3 -3 -4 -4 -4 -4 -4 -4 -5 -5 -6 -6 -8
13 13 13 11 11 11 10 9 10 9 9 9 9 8 8 7 6 5 4 3 3 3 2 0 -0 -1 -1 -2 -3 -3 -4 -6 -6 -5 -5 -5 -5 -6 -7 -7 -7 -8 -8
9 9 10 10 9 9 9 9 9 9 8 8 8 7 6 4 3 1 1 1 1 1 -0 -1 -2 -2 -3 -3 -5 -6 -6 -6 -6 -6 -7 -8 -9 -9 -8 -8 -9 -9 -10
9 9 9 9 9 8 8 8 8 8 7 6 5 4 3 1 1 0 0 -1 -1 -1 -2 -2 -3 -4 -5 -5 -5 -8 -7 -7 -7 -8 -10 -11 -10 -10 -11 -11 -11 -11 -11
7 8 8 8 8 7 7 6 5 4 4 4 3 2 2 0 -0 -1 -1 -1 -2 -3 -3 -4 -5 -6 -7 -8 -8 -8 -9 -9 -11 -11 -11 -12 -13 -13 -14 -14 -14 -14 -14
5 5 6 6 6 5 4 3 1 2 1 1 1 0 -1 -1 -2 -3 -3 -4 -4 -5 -6 -7 -8 -8 -9 -10 -11 -12 -13 -13 -13 -13 -14 -15 -15 -15 -15 -15 -15 -15 -14
3 2 0 1 1 1 0 1 -1 -3 -3 -3 -3 -3 -3 -4 -5 -5 -6 -6 -6 -7 -8 -8 -9 -10 -11 -11 -12 -13 -14 -15 -13 -15 -16 -16 -16 -16 -16 -16 -16 -15 -15
2 0 -0 -2 -2 -2 -3 -4 -4 -5 -5 -7 -7 -7 -7 -7 -7 -7 -7 -8 -8 -9 -10 -11 -12 -13 -13 -14 -14 -15 -15 -16 -16 -17 -17 -17 -17 -17 -17 -17 -16 -16 -16
-1 -3 -3 -3 -4 -4 -5 -5 -6 -6 -6 -8 -8 -8 -9 -9 -9 -9 -10 -10 -12 -12 -13 -13 -14 -14 -15 -15 -16 -17 -17 -17 -18 -18 -18 -18 -18 -18 -18 -18 -17 -18 -18
-4 -5 -5 -5 -5 -5 -6 -6 -7 -8 -8 -9 -10 -11 -11 -11 -11 -12 -12 -13 -14 -14 -15 -15 -16 -16 -17 -17 -18 -18 -18 -18 -18 -18 -19 -19 -19 -19 -19 -19 -18 -18 -18
-6 -6 -6 -6 -6 -7 -8 -8 -9 -9 -10 -10 -11 -12 -12 -12 -13 -14 -15 -15 -16 -16 -17 -17 -18 -18 -19 -19 -19 -19 -20 -20 -20 -20 -20 -20 -20 -20 -20 -20 -19 -19 -19
-7 -7 -8 -8 -8 -8 -9 -10 -11 -11 -12 -12 -12 -13 -13 -14 -16 -17 -17 -17 -17 -18 -18 -19 -19 -20 -20 -21 -21 -21 -21 -22 -22 -22 -22 -22 -21 -21 -21 -20 -20 -20 -19
-8 -9 -9 -10 -11 -11 -11 -12 -13 -14 -15 -16 -16 -16 -17 -17 -18 -19 -19 -18 -19 -19 -18 -19 -19 -20 -21 -21 -21 -23 -23 -23 -23 -23 -23 -23 -22 -22 -21 -21 -21 -20 -20
-10 -10 -11 -11 -13 -15 -16 -16 -15 -15 -17 -17 -18 -18 -19 -19 -20 -19 -18 -18 -18 -19 -19 -19 -19 -19 -19 -20 -20 -21 -23 -23 -22 -22 -24 -24 -23 -23 -22 -22 -21 -21 -21
-12 -13 -13 -14 -15 -17 -17 -17 -18 -18 -18 -19 -20 -20 -20 -20 -21 -21 -21 -19 -19 -19 -19 -19 -19 -20 -20 -20 -20 -20 -20 -20 -21 -21 -21 -22 -24 -24 -23 -23 -22 -22 -21
-14 -15 -16 -16 -16 -17 -18 -18 -18 -19 -19 -20 -20 -20 -20 -21 -21 -19 -19 -19 -19 -19 -19 -20 -20 -20 -20 -20 -20 -20 -21 -21 -21 -21 -21 -21 -22 -23 -23 -22 -22 -22 -21
Height
1450 1455 1457 1459 1463 1469 1473 1478 1482 1489 1493 1496 1500 1504 1508 1511 1514 1516 1516 1517 1517 1516 1516 1516 1516 1516 1515 1514 1508 1513 1516 1517 1518 1519 1521 1519 1521 1522 1523 1523 1522 1522 1522
1444 1447 1451 1456 1458 1459 1462 1466 1472 1475 1482 1486 1490 1495 1498 1500 1503 1504 1505 1505 1505 1506 1508 1506 1506 1506 1506 1506 1506 1508 1508 1507 1509 1511 1510 1512 1513 1514 1514 1515 1516 1515 1514
1437 1440 1444 1446 1449 1451 1455 1459 1464 1468 1472 1477 1481 1483 1485 1488 1491 1492 1493 1494 1495 1495 1495 1496 1495 1495 1495 1496 1495 1498 1496 1498 1499 1501 1501 1504 1504 1506 1507 1508 1509 1508 1508
1428 1432 1435 1436 1439 1443 1448 1453 1456 1459 1463 1466 1468 1471 1474 1477 1480 1481 1482 1483 1484 1484 1484 1484 1485 1484 1485 1485 1485 1485 1486 1489 1490 1491 1493 1494 1496 1498 1500 1500 1502 1503 1501
1421 1423 1423 1427 1431 1436 1439 1443 1447 1450 1452 1456 1460 1461 1463 1465 1467 1469 1471 1471 1472 1473 1474 1473 1474 1474 1475 1472 1476 1476 1478 1479 1480 1483 1484 1486 1488 1489 1491 1494 1495 1495 1494
1409 1411 1416 1420 1422 1424 1429 1433 1437 1440 1442 1445 1447 1451 1454 1454 1456 1458 1461 1462 1462 1462 1461 1462 1463 1463 1461 1464 1467 1468 1468 1469 1471 1473 1476 1477 1481 1483 1485 1486 1488 1488 1488
1401 1403 1406 1411 1413 1416 1419 1423 1426 1429 1434 1435 1438 1441 1442 1444 1445 1447 1450 1450 1451 1449 1450 1450 1450 1453 1453 1455 1456 1457 1459 1461 1465 1467 1468 1471 1476 1477 1480 1480 1480 1481 1481
1394 1396 1399 1401 1404 1409 1412 1414 1417 1420 1421 1423 1427 1431 1433 1433 1434 1436 1439 1440 1438 1438 1439 1440 1442 1444 1444 1446 1446 1445 1449 1453 1456 1461 1464 1464 1469 1471 1472 1473 1473 1472 1471
1384 1386 1389 1393 1396 1399 1401 1405 1410 1413 1415 1416 1417 1420 1422 1424 1425 1426 1428 1428 1429 1430 1431 1431 1433 1434 1434 1437 1439 1444 1442 1448 1453 1455 1460 1461 1463 1464 1465 1465 1465 1466 1464
1377 1379 1382 1385 1388 1391 1394 1397 1399 1403 1405 1408 1411 1412 1413 1415 1416 1418 1419 1420 1420 1421 1422 1424 1428 1429 1430 1436 1439 1444 1441 1449 1451 1452 1456 1456 1456 1458 1460 1460 1459 1458 1458
1371 1372 1375 1378 1382 1385 1387 1390 1392 1394 1398 1402 1403 1404 1406 1407 1408 1410 1411 1412 1413 1414 1415 1418 1421 1428 1429 1431 1435 1444 1444 1442 1445 1450 1452 1451 1452 1453 1453 1453 1453 1452 1451
1365 1365 1366 1370 1373 1375 1380 1382 1388 1391 1392 1391 1396 1397 1399 1401 1401 1403 1405 1407 1409 1412 1413 1417 1420 1421 1428 1431 1433 1438 1440 1441 1445 1446 1446 1446 1447 1447 1447 1446 1445 1444 1442
1364 1363 1364 1365 1370 1373 1375 1376 1379 1384 1389 1386 1388 1390 1393 1394 1397 1400 1403 1406 1410 1410 1416 1418 1419 1420 1427 1432 1431 1434 1437 1439 1441 1441 1441 1441 1441 1441 1440 1439 1438 1435 1433
1364 1364 1366 1365 1369 1372 1373 1375 1378 1379 1381 1383 1385 1386 1389 1392 1396 1400 1403 1407 1410 1411 1413 1415 1421 1423 1426 1428 1428 1431 1434 1434 1435 1435 1436 1436 1436 1434 1433 1431 1429 1427 1425
1367 1367 1366 1366 1368 1370 1372 1375 1377 1378 1379 1381 1384 1387 1388 1392 1396 1400 1404 1406 1409 1413 1415 1419 1422 1424 1424 1425 1427 1429 1429 1429 1430 1431 1431 1431 1430 1429 1428 1426 1423 1421 1419
1368 1367 1366 1365 1366 1369 1370 1373 1378 1377 1382 1385 1387 1391 1392 1395 1398 1402 1407 1411 1413 1416 1418 1420 1422 1424 1424 1425 1425 1426 1426 1426 1426 1425 1425 1425 1425 1424 1422 1421 1418 1417 1415
1373 1372 1368 1368 1370 1368 1370 1365 1373 1382 1383 1385 1389 1392 1397 1399 1401 1405 1409 1411 1414 1416 1418 1420 1421 1421 1422 1423 1423 1424 1424 1422 1421 1421 1421 1421 1420 1419 1417 1416 1414 1412 1410
1374 1375 1375 1375 1370 1370 1373 1375 1380 1380 1381 1387 1394 1397 1402 1405 1406 1406 1409 1412 1414 1415 1416 1418 1419 1420 1421 1421 1422 1422 1422 1421 1420 1418 1416 1415 1415 1414 1413 1411 1410 1408 1406
1376 1376 1376 1374 1378 1379 1381 1383 1387 1387 1389 1394 1399 1402 1404 1406 1409 1410 1412 1413 1415 1417 1418 1417 1418 1418 1419 1419 1419 1418 1418 1417 1415 1413 1412 1411 1410 1409 1408 1406 1405 1403 1400
1383 1383 1385 1386 1383 1386 1391 1391 1393 1395 1395 1399 1403 1404 1409 1409 1410 1412 1413 1414 1414 1414 1415 1415 1417 1417 1417 1417 1416 1415 1415 1414 1413 1411 1408 1407 1405 1404 1402 1401 1399 1397 1395
1392 1394 1395 1391 1388 1395 1396 1397 1398 1398 1400 1403 1405 1407 1409 1409 1411 1413 1414 1415 1413 1413 1413 1413 1414 1415 1414 1414 1413 1412 1411 1409 1408 1405 1403 1401 1400 1399 1397 1396 1395 1393 1391
1398 1399 1399 1396 1393 1396 1399 1400 1401 1400 1403 1406 1406 1407 1409 1410 1412 1413 1413 1413 1413 1411 1412 1411 1411 1411 1411 1409 1408 1407 1405 1404 1402 1400 1398 1396 1395 1395 1393 1392 1390 1388 1386
1403 1402 1401 1401 1401 1401 1402 1402 1404 1405 1407 1406 1408 1408 1410 1411 1411 1413 1412 1411 1412 1409 1407 1408 1407 1407 1406 1404 1403 1402 1400 1398 1396 1394 1393 1391 1391 1390 1389 1387 1386 1384 1382
1406 1405 1406 1405 1406 1407 1406 1405 1406 1407 1407 1410 1410 1408 1408 1409 1410 1410 1409 1410 1408 1406 1405 1406 1405 1403 1402 1401 1399 1397 1395 1392 1390 1388 1387 1387 1387 1386 1385 1383 1382 1380 1378
1409 1410 1410 1408 1409 1409 1406 1406 1408 1407 1409 1411 1410 1409 1409 1407 1409 1408 1410 1407 1404 1403 1404 1403 1402 1401 1399 1397 1395 1392 1389 1387 1385 1383 1382 1381 1380 1380 1380 1379 1378 1376 1375
1412 1412 1411 1410 1409 1409 1409 1409 1410 1409 1410 1411 1409 1407 1406 1407 1408 1407 1406 1404 1402 1401 1401 1400 1399 1397 1395 1392 1390 1388 1385 1383 1380 1379 1378 1376 1376 1376 1377 1376 1375 1373 1371
Wind_Speed
31 32 34 39 40 44 42 43 44 44 46 44 46 46 42 40 39 38 37 35 34 39 38 37 34 32 36 38 38 31 33 33 31 21 25 26 26 24 24 26 26 24 19
32 32 34 34 36 41 45 46 48 56 49 49 52 47 45 44 45 44 46 42 47 43 40 38 35 33 32 36 25 31 37 38 32 28 30 26 26 24 26 24 24 22 21
33 34 35 37 39 43 45 44 44 44 45 46 44 48 53 55 53 50 50 50 47 46 41 41 41 43 39 31 34 41 42 37 33 33 29 28 28 26 26 27 25 23 21
35 35 36 38 41 41 41 41 43 45 45 49 48 46 45 43 41 45 47 49 50 47 48 45 45 39 39 40 37 45 38 37 34 35 30 27 24 24 25 22 19 17 19
34 37 41 41 39 38 39 39 41 43 44 43 44 47 45 43 44 45 44 45 49 48 46 45 41 41 41 40 35 36 38 37 38 33 28 27 25 24 22 14 15 16 17
34 36 36 37 38 41 41 41 40 41 42 41 41 42 44 45 48 49 47 42 44 45 46 46 43 38 40 36 35 37 36 40 37 33 28 25 23 19 17 15 14 14 15
33 34 34 33 34 35 35 36 39 40 39 41 42 39 40 41 47 48 44 42 39 37 38 40 44 39 40 36 37 37 35 34 28 26 25 21 17 16 16 16 15 14 15
35 33 33 33 33 30 29 30 30 30 32 34 33 33 34 35 39 37 34 33 36 36 36 36 38 36 39 41 39 38 34 30 27 24 19 17 15 18 18 17 17 19 20
34 36 34 31 31 30 30 28 25 25 27 27 27 26 26 25 26 27 30 36 35 35 36 34 35 36 36 32 29 26 25 25 21 17 15 11 15 18 19 19 17 14 17
27 26 26 28 29 29 27 27 29 26 25 21 20 22 27 28 28 28 29 30 31 33 32 31 27 27 25 25 23 23 22 18 14 11 12 14 14 17 17 17 16 18 16
21 23 22 23 24 23 27 28 24 21 20 21 24 25 26 27 28 29 29 30 31 32 30 26 25 22 22 23 21 18 14 10 7 8 12 15 15 15 16 19 22 20 18
18 20 22 23 26 25 24 21 19 20 23 21 23 23 22 22 21 20 18 17 19 22 23 23 23 23 18 16 14 10 6 4 8 12 13 14 17 20 23 22 21 24 26
10 13 15 17 17 18 19 19 19 19 21 19 21 21 20 20 20 17 14 14 16 19 17 18 17 15 13 10 5 6 7 10 12 14 17 19 20 19 20 25 28 27 28
6 10 13 15 17 16 16 16 16 17 18 18 19 18 18 18 17 16 17 17 18 17 17 16 13 11 9 8 8 8 10 14 16 16 16 16 19 21 21 21 23 22 23
10 11 12 11 11 12 12 11 11 11 10 13 15 17 20 20 19 17 16 16 15 13 11 9 8 6 2 3 7 11 12 12 11 14 15 16 17 15 15 18 19 18 18
10 12 14 15 15 15 15 14 14 11 11 11 13 14 17 14 17 16 13 10 8 6 6 3 2 3 4 5 5 5 6 9 11 13 14 14 13 14 15 16 16 16 18
6 8 14 16 18 20 19 18 19 18 17 15 13 12 11 15 14 12 10 7 4 2 1 1 2 3 5 6 7 6 6 10 14 10 10 12 13 14 15 16 16 16 18
4 8 8 10 15 17 19 23 24 26 27 26 22 20 16 13 10 7 4 3 3 2 1 1 1 1 1 1 3 4 6 8 9 11 11 13 14 15 16 17 17 18 19
9 12 14 16 18 21 22 23 22 23 23 22 19 15 12 9 7 7 6 5 5 5 5 4 2 1 2 3 6 6 9 10 12 14 13 14 14 15 16 17 17 18 19
22 22 23 24 24 22 21 21 19 18 18 16 13 11 8 6 5 4 4 4 4 4 4 2 2 4 4 6 8 10 11 12 14 14 15 15 15 16 16 16 16 18 18
23 20 19 21 21 18 17 16 15 14 13 12 11 9 7 5 5 4 5 4 3 4 3 3 5 7 8 9 11 11 12 14 14 15 15 15 15 15 15 15 16 17 17
16 16 15 17 17 15 15 14 13 12 11 9 8 6 4 4 5 4 4 4 6 6 7 7 7 8 9 10 11 12 12 13 13 14 14 14 14 14 14 15 15 16 16
14 14 14 15 14 13 12 12 11 10 9 9 8 6 5 4 5 4 5 6 7 8 10 10 11 12 11 13 14 12 12 12 13 13 13 13 13 13 14 15 15 15 16
11 11 11 11 11 10 11 11 10 9 9 8 7 6 5 5 4 5 5 7 8 9 11 12 13 14 15 15 15 15 14 14 15 15 14 13 14 13 13 14 15 15 16
10 10 10 10 10 9 10 9 8 7 7 6 6 6 5 5 5 5 7 9 10 11 13 14 14 15 15 16 16 17 17 18 17 16 15 15 14 14 14 14 15 15 15
11 10 10 10 10 10 9 9 8 7 6 5 5 5 5 5 6 8 9 11 12 13 14 15 16 16 17 16 17 17 17 17 16 15 14 14 12 12 12 13 15 15 16
Wind_Direction
206 207 207 208 209 211 216 218 218 219 221 225 228 232 236 239 237 239 245 250 249 258 263 269 271 275 271 267 255 256 248 243 234 245 221 242 245 248 254 261 268 274 269
209 209 212 214 213 215 219 220 220 222 226 227 229 232 235 236 239 241 245 248 255 259 268 273 267 272 272 273 269 266 258 247 233 229 237 244 242 246 246 256 264 268 265
212 214 215 217 217 221 222 222 223 225 226 229 231 235 239 241 242 243 245 248 255 259 264 271 264 268 256 251 262 261 249 236 237 236 235 241 235 244 253 258 264 262 261
217 216 218 221 224 225 226 227 228 230 230 234 235 236 237 238 239 243 248 251 253 258 267 262 265 260 258 259 261 256 243 238 233 237 234 238 239 245 251 259 258 259 261
218 222 228 231 229 228 230 232 233 235 236 236 238 242 245 245 244 246 248 253 256 262 267 262 262 260 261 254 256 251 245 236 233 231 230 234 240 245 256 253 248 257 264
220 229 228 228 230 235 235 235 236 239 239 239 240 241 244 246 251 253 253 258 270 268 261 260 265 262 251 246 250 250 243 237 232 227 231 240 247 248 243 245 252 258 268
224 225 225 224 228 231 234 235 238 240 242 243 244 243 245 249 254 258 261 263 264 265 263 260 255 254 248 242 245 240 230 224 225 235 235 239 241 244 241 249 260 259 262
233 228 227 227 227 225 226 230 231 232 236 241 242 241 243 248 259 264 262 258 258 259 258 257 251 249 251 239 233 222 213 215 223 225 231 236 246 255 260 262 262 269 276
233 233 230 226 227 224 226 227 227 228 234 239 246 252 257 263 266 272 269 259 254 253 250 245 244 241 232 223 214 209 208 214 217 223 242 259 260 262 266 270 272 274 278
230 226 224 224 225 225 224 224 227 227 234 240 246 251 256 258 258 257 255 251 249 242 237 234 236 227 213 203 207 216 209 217 229 247 263 259 267 272 270 269 271 275 276
228 225 222 222 223 217 215 223 224 227 226 237 240 244 248 251 252 252 253 251 243 235 226 212 192 197 198 197 200 209 218 226 263 265 274 275 268 269 269 277 281 271 269
232 225 220 216 216 216 218 213 213 224 223 222 231 233 237 239 239 236 230 228 230 226 201 187 187 189 200 200 205 224 253 280 272 268 260 269 272 274 283 280 272 278 284
238 215 209 205 206 200 202 201 203 211 223 223 223 223 220 212 203 189 190 191 187 180 177 181 186 188 199 213 208 233 253 251 254 267 270 275 280 277 273 276 283 286 287
197 187 184 180 184 187 191 197 209 214 217 218 215 208 193 182 178 176 176 177 178 178 176 186 187 190 203 225 247 257 247 257 268 275 279 274 275 282 285 287 289 291 288
183 179 173 174 182 185 186 191 197 197 206 209 195 187 179 173 173 179 184 182 182 183 181 184 195 209 246 249 254 267 272 279 281 276 279 283 286 289 288 290 290 289 289
180 168 171 174 174 169 166 161 155 153 161 170 173 179 167 177 173 169 165 165 169 173 172 176 208 243 244 256 257 265 278 282 277 283 288 291 292 292 291 288 291 290 290
285 183 160 156 154 153 150 145 142 128 126 128 141 142 146 142 139 136 137 136 146 108 149 256 255 253 260 259 264 267 268 282 291 298 298 297 295 293 292 292 292 290 290
221 179 167 135 130 126 124 125 126 123 117 105 102 107 110 115 117 115 105 60 41 38 60 66 349 323 342 320 307 299 296 296 298 298 300 299 296 295 292 290 289 288 290
108 105 112 109 106 105 109 108 108 108 108 109 110 106 100 91 86 86 93 88 81 70 61 61 48 2 348 327 292 307 306 305 303 308 306 301 297 293 288 287 287 289 292
98 102 106 107 105 105 108 107 107 107 108 110 109 104 100 91 76 56 51 56 63 58 58 33 350 320 325 317 314 313 309 304 302 299 296 296 294 289 287 288 289 290 290
98 100 102 104 103 105 104 105 108 111 110 111 111 116 127 94 72 48 32 31 22 21 7 12 329 325 321 316 313 307 303 299 300 299 299 297 293 290 288 289 290 291 293
93 97 98 97 103 106 105 106 104 104 101 99 94 90 76 56 56 48 24 353 338 334 329 325 326 317 316 311 310 306 303 301 301 301 298 296 296 292 291 291 292 294 295
79 79 80 83 86 94 94 93 92 91 89 85 81 74 55 42 48 29 358 337 331 325 318 313 315 310 309 308 307 306 304 302 300 297 295 296 292 289 288 291 294 296 296
72 76 78 80 82 83 81 78 78 83 79 73 69 67 57 46 27 357 341 324 325 325 323 319 316 313 311 310 308 307 305 301 300 298 296 289 285 289 291 291 294 294 296
71 73 76 80 78 74 74 76 75 70 69 71 67 65 51 42 7 354 330 329 330 326 321 319 316 312 312 312 310 309 307 307 305 301 293 290 286 286 289 292 295 298 297
72 74 75 74 72 70 70 71 70 67 62 55 43 31 20 2 336 331 327 326 326 322 317 314 312 311 312 312 311 311 308 306 302 297 293 290 287 287 289 292 294 296 297